Location: Newark
(35.5300°N, 14.3000°E)
Time: 16:49:58
(UTC+00:00)

Explorer 11/Cluster Stage 4 - Pass Details

Date: 17 November 2019
Orbit: 467 x 1259 km, 28.8° (Epoch: 11 December)

Event Time Altitude Azimuth Distance (km) Brightness Sun altitude
Rises 18:25:20 0° 221° (SW) 3,179 10.3 -30.5°
Reaches altitude 10° 18:28:00 10° 207° (SSW) 2,391 9.3 -31.0°
Enters shadow 18:30:16 19° 186° (S) 1,923 8.6 -31.5°
